Regional Weather Roundup
Issued by NWS

Home | Current Version | Previous Version | Text Only | Print | Product List | Glossary On
Versions: 1 2 3 4 5 6 7 8 9 10 11 12 13 14 15 16 17 18 19 20 21 22 23 24 25 26 27 28 29 30 31 32 33 34 35 36 37 38 39 40 41 42 43 44 45 46 47 48 49 50
000
ASUS44 KLUB 220501
RWRTX
WEST TEXAS WEATHER ROUNDUP
NATIONAL WEATHER SERVICE LUBBOCK TX
1200 AM CDT WED OCT 22 2014

NOTE: "FAIR" INDICATES FEW OR NO CLOUDS BELOW 12,000 FEET WITH NO
SIGNIFICANT WEATHER AND/OR OBSTRUCTIONS TO VISIBILITY.

TXZ004-006>008-010-012-014-016-OKZ002-220600-
TEXAS PANHANDLE/OKLAHOMA PANHANDLE

CITY           SKY/WX    TMP DP  RH WIND       PRES   REMARKS
AMARILLO       CLEAR     61  50  67 S13       30.09S
BORGER         CLEAR     63  47  55 S13       30.06S
CANADIAN       CLEAR     64  52  65 S12       30.05S
DALHART        CLOUDY    59  52  77 SW8       30.08S
DUMAS          PTCLDY    54  46  74 S8        30.07S
GUYMON         CLEAR     60  47  61 S13       30.03R
HEREFORD       MOCLDY    57  55  94 SE5       30.10F
PAMPA          CLEAR     60  48  65 S12       30.09R
$$

TXZ026-029-035-045-048-220600-
SOUTHERN PANHANDLE/SOUTH PLAINS/ROLLING PLAINS

CITY           SKY/WX    TMP DP  RH WIND       PRES   REMARKS
CHILDRESS      CLEAR     60  49  66 SE8       30.06S
LUBBOCK        CLOUDY    65  51  60 S9        30.09S
SNYDER         PTCLDY    62  51  67 E5        30.08F
$$

TXZ052-054-060>062-072-078-127-140-154-169-220600-
PERMIAN BASIN/CONCHO VALLEY/BIG COUNTRY/EDWARDS PLATEAU

CITY           SKY/WX    TMP DP  RH WIND       PRES   REMARKS
ABILENE        PTCLDY    65  50  58 SE7       30.08S
BIG SPRING     CLOUDY    66  53  62 SE7       30.10R
JUNCTION       CLOUDY    70  52  52 E8        30.07F
MIDLAND        CLOUDY    68  57  68 S7        30.07F
ODESSA         CLOUDY    65  58  78 S5        30.08F
SAN ANGELO     CLOUDY    71  54  54 SE8       30.06S
SONORA         LGT RAIN  66  63  88 CALM      30.11S
WINK           CLOUDY    65  62  90 SE6       30.06R
$$

TXZ055-058-074-075-080-082-220600-
FAR WEST/SOUTHWEST MOUNTAINS/TRANS PECOS

CITY           SKY/WX    TMP DP  RH WIND       PRES   REMARKS
ALPINE         CLOUDY    60  56  87 CALM      30.17S
DRYDEN           N/A     66  64  93 CALM      30.04F
EL PASO        PTCLDY    62  54  74 E5        30.05R
FORT STOCKTON  PTCLDY    61  59  93 SE5       30.07S
MARFA          CLOUDY    55  55 100 E6        30.14F
PRESIDIO       MOCLDY    65  60  85 MISG      30.03F
$$

TXZ014-016-019-021>030-083-220600
TEXAS TECH WEST TEXAS MESONET/TEXAS PANHANDLE/NORTHERN SOUTH PLAINS

CITY           SKY/WX    TMP DP  RH WIND       PRES   REMARKS
ABERNATHY 5ENE   N/A     58  53  83 S5        30.11S
AMARILLO 9NNE    N/A     59  49  69 S5        30.07S
AMARILLO 7SSE    N/A     57  49  74 S5        30.10F
AMHERST 1NE      N/A     61  55  81 S2        30.10F
BOOTLEG 11WNW    N/A     55  53  94 S10       30.13S
CANADIAN 6E      N/A     59  51  74 SE8       30.04S
CAPROCK CYN SP   N/A     63  50  62 SW7       30.08S
CHILDRESS 2NNE   N/A     60  49  66 SE9       30.05S
CLARENDON 2WSW   N/A     59  49  69 S8        30.08S
CLAUDE 12SW      N/A     63  50  63 S8        30.10S
DIMMITT 2NE      N/A     60  55  82 S8        30.11S
FLOYDADA 2NNE    N/A     55  48  76 S6        30.10R
FRIONA 2NE       N/A     60  55  82 S9        30.11F
GOODLETT 3W      N/A     61  49  64 SE7       30.04F
HART 3N          N/A     59  52  77 S6        30.11S
HEREFORD 2NW     N/A     58  53  81 S5        30.10S
MCLEAN 1E        N/A     58  47  67 S5        30.07R
MEMPHIS 1NE      N/A     56  47  72 CALM      30.06R
MULESHOE 2SSW    N/A     60  57  90 S6        30.11S
OLTON 6S         N/A     59  53  79 S5        30.10S
PALO DURO SP     N/A     62  49  62 SE7       30.11S
PAMPA 2E         N/A     61  49  63 S12       30.08S
PLAINVIEW 1S     N/A     58  52  79 S6        30.10S
SILVERTON 7ESE   N/A     58  48  69 S7        30.10R
TULIA 2ENE       N/A     59  50  72 S6        30.10S
TURKEY 2WSW      N/A     58  50  75 S8        30.06S
UMBARGER 3NNE    N/A     55  50  82 S7        30.10S
$$

TXZ033>036-039>041-045>048-220600
TEXAS TECH WEST TEXAS MESONET/SOUTH PLAINS

CITY           SKY/WX    TMP DP  RH WIND       PRES   REMARKS
AIKEN 3WSW       N/A     52  48  84 S5        30.11S
ANTON 6SSW       N/A     62  55  78 SE6       30.10S
BROWNFIELD 2S    N/A     60  54  78 SE5       30.10S
DENVR CTY 7WNW   N/A     59  56  89 SE2       30.10S
GAIL 2ESE        N/A     62  51  68 SE6       30.07S
LAMESA 2SE       N/A     64  52  65 SE6       30.09S
LEVELLAND 4S     N/A     61  54  79 SE3       30.10S
LUBBOCK 3WNW     N/A     65  50  57 SE7       30.10S
MORTON 1ENE      N/A     60  55  84 S3        30.10F
ODONNELL 1N      N/A     63  50  61 SE7       30.09S
PLAINS 3N        N/A     60  55  85 SE3       30.10F
RALLS 1SE        N/A     57  49  75 SE7       30.11S
REESE CENTER     N/A     62  53  71 S6        30.10S
SEMINOLE 2NNE    N/A     61  58  91 CALM      30.09S
SLATON 2NE       N/A     61  51  69 S7        30.09F
SNYDER 3E        N/A     62  51  67 E7        30.07S
SUNDOWN 8SW      N/A     60  54  80 S3        30.10F
TAHOKA 3NNE      N/A     62  52  69 S5        30.09S
WOLFFORTH 6SSW   N/A     63  52  67 SE6       30.10S
$$

TXZ031-032-036>038-042>044-220600-
TEXAS TECH WEST TEXAS MESONET/ROLLING PLAINS

CITY           SKY/WX    TMP DP  RH WIND       PRES   REMARKS
ASPERMONT 3NE    N/A     62  51  66 SE6       30.06R
FLUVANNA 3WNW    N/A     62  50  66 SE6       30.08S
GRAHAM 5SSW      N/A     64  50  61 SE6       30.09S
GUTHRIE 10WSW    N/A     60  49  68 SE5       30.06S
HASKELL 1NW      N/A     66  49  53 SE7       30.06S
JAYTON 1SSE      N/A     62  50  65 SE5       30.06S
KNOX CITY 3NW    N/A     64  50  59 SE9       30.06R
LK A HENRY 1NW   N/A     65  51  61 S3        30.07S
NORTHFIELD 1S    N/A     63  51  64 SE9       30.05F
ODELL 4ENE       N/A     66  52  60 SE9       30.06S
PADUCAH 10SW     N/A     58  50  74 S8        30.06S
POST 1NE         N/A     64  50  62 SE5       30.08S
RRING SPRGS 3N   N/A     58  51  76 S8        30.08S
SEYMOUR 3NW      N/A     65  50  57 SE8       30.06S
SPUR 1W          N/A     54  48  80 NW2       30.06F
WEINERT 2NNE     N/A     64  50  59 SE9       30.06S
WHITE RVR 6NE    N/A     62  49  62 S1        30.08S
$$

TXZ052-054-060>062-072-078-127-140-154-169-220600-
TEXAS TECH WEST TEXAS MESONET/PERMIAN BASIN/
CONCHO VALLEY/BIG COUNTRY/EDWARDS PLATEAU

CITY           SKY/WX    TMP DP  RH WIND       PRES   REMARKS
COYANOSA 2N      N/A     65  62  89 SE5       30.06S
JUNCTION 1SSW    N/A     69  52  54 E3        30.07F
MERTZON 3NNE     N/A     70  54  57 SE6       30.08S
SAN ANGELO 7NW   N/A     71  51  50 E6        30.07S
STRLNG CT 4WSW   N/A     69  52  53 E10       30.08S
ST LAWRNCE 5SW   N/A     66  56  71 S3        30.08S
SWEETWATR 11SW   N/A     64  52  63 SE9       30.09S
WALL 1E          N/A     69  53  57 SE8       30.07S
$$

TXZ055-058-074-075-080-082-220600-
TEXAS TECH WEST TEXAS MESONET/FAR WEST/SOUTHWEST MOUNTAINS/TRANS PECOS

CITY           SKY/WX    TMP DP  RH WIND       PRES   REMARKS
PRSMN GAP BBNP   N/A     63  62  96 N12       30.05S
GUADLPE MTN NP   N/A     55  53  95 NE3       30.17R
$$



USA.gov is the U.S. government's official web portal to all federal, state and local government web resources and services.